Regional Weather Roundup
Issued by NWS Upton, NY

Current Version | Previous Version | Graphics & Text | Print | Product List | Glossary Off
Versions: 1 2 3 4 5 6 7 8 9 10 11 12 13 14 15 16 17 18 19 20 21 22 23 24 25 26 27 28 29 30 31 32 33 34 35 36 37 38 39 40 41 42 43 44 45 46 47 48 49 50

300
ASUS41 KOKX 230108
RWROKX

Regional Weather Roundup
National Weather Service New York NY
800 PM EST MON JAN 22 2018

Note: "FAIR" indicates few or no clouds below 12,000 feet with no
significant weather and/or obstructions to visibility.

NYZ071-072-176-178-NJZ106-104-230200-
New York City Metro Area

CITY           SKY/WX    TMP DP  RH WIND       PRES   REMARKS
Central Park   CLOUDY    40  37  89 VRB7      30.15F
Bronx Bot Gard NOT AVBL
Bronx Lehman C   N/A     37  36  93 E8          N/A  WCI  31
LaGuardia Arpt CLOUDY    39  35  86 NE14      30.14F WCI  31
Queens College   N/A     39  37  93 NE7         N/A  WCI  34
Kennedy Intl   CLOUDY    42  42 100 NE8       30.14F
Breezy Point     N/A     39 N/A N/A E7          N/A  WCI  34
Brooklyn Coll    N/A     43  39  87 NE5         N/A
Staten Island    N/A     43  39  87 NE3         N/A
Newark/Liberty CLOUDY    41  38  89 N9        30.13F
Teterboro      CLOUDY    41  37  86 E9        30.13F FOG
$$

NYZ177-179-078>081-230200-
Long Island New York

CITY           SKY/WX    TMP DP  RH WIND       PRES   REMARKS
Jones Beach      N/A     39 N/A N/A E16         N/A  WCI  30
Wantagh          N/A     43  41  93 E7          N/A
Matinecock Pt    N/A     36 N/A N/A E20         N/A  WCI  25
Farmingdale    CLOUDY    43  41  93 E7        30.14S
MacArthur/ISP  FOG       43  41  93 E5        30.15S VSB 3/4
Shirley        CLOUDY    41  41 100 VRB3      30.16F FOG
Mt Sinai Harb    N/A    N/A N/A N/A E3          N/A
Westhampton    CLOUDY    42  39  89 E9        30.17F FOG
East Hampton   CLOUDY    40  39  95 E8        30.16F WCI  35
Southold         N/A     37  37 100 E10         N/A  WCI  30
Montauk          N/A     42  41  96 MISG      30.18F
$$

NYZ052-065-067-230200-
Hudson Valley

CITY           SKY/WX    TMP DP  RH WIND       PRES   REMARKS
White Plains   FOG       38  37  97 E10G18    30.13F VSB 1   WCI  31
Larchmont Harb   N/A     36 N/A N/A NE20        N/A  WCI  25
Croton On Huds   N/A     41 N/A N/A E2          N/A
Somers           N/A     39  37  93 E7          N/A  WCI  34
Brewster         N/A     37  37 100 E5          N/A  WCI  34
Newburgh       NOT AVBL
Montgomery     CLOUDY    37  36  96 N8        30.11F FOG     WCI  31
Otisville        N/A     37  37 100 NE2         N/A
Warwick          N/A     41  39  93 E6          N/A
Suffern          N/A     39  37  93 E1          N/A
Poughkeepsie   CLOUDY    40  37  89 SE6       30.13F FOG
Albany         LGT RAIN  34  31  88 CALM      30.10F FOG
$$

NJZ001-105-106-008-010-013-015-019>022-104-230200-
New Jersey

CITY           SKY/WX    TMP DP  RH WIND       PRES   REMARKS
Newark/Liberty CLOUDY    41  38  89 N9        30.13F
Teterboro      CLOUDY    41  37  86 E9        30.13F FOG
Caldwell       CLOUDY    40  39  97 E9        30.13F FOG     WCI  34
Somerville     FAIR      42  39  89 NE6       30.10S FOG
Linden         FAIR      42  38  85 CALM      30.13F
Perth Amboy      N/A     43 N/A N/A E8          N/A
Sussex         MOCLDY    37  36  96 CALM      30.10F FOG
Andover          N/A     38  37  97 CALM      30.09F
Trenton        FAIR      44  37  76 E7        30.09S
Millville      FAIR      50  40  68 S5        30.07F
Atlantic City  FAIR      46  39  76 S6        30.09F
Wrightstown    FAIR      43  38  83 E5        30.06F
Toms River     FAIR      39  35  86 CALM      30.10F
Belmar         FAIR      41  39  93 E5        30.11
$$

PAZ047>061-062-071-230200-
Eastern Pennsylvania

CITY           SKY/WX    TMP DP  RH WIND       PRES   REMARKS
Philadelphia   MOCLDY    51  40  65 E5        30.06F
Allentown      FAIR      45  38  76 E8        30.06F
Scranton       FAIR      45  39  79 NE8       29.98F
$$

CTZ002-004>006-009-010-012-RIZ004-006-007-MAZ004-011-015-230200-
Southern New England

 In CT

CITY           SKY/WX    TMP DP  RH WIND       PRES   REMARKS
Bradley Intl   CLOUDY    36  36 100 N6        30.21S FOG     WCI  31
Hartford       CLOUDY    39  37  92 NE5       30.21S FOG
Danbury        FOG       39  38  96 E8        30.15F VSB 1   WCI  33
Wtrbury/Oxford FOG       37  37 100 E7        30.16F VSB 1/4 WCI  32
Norwalk Harbor   N/A     36 N/A N/A NE18        N/A  WCI  25
Bridgeport     CLOUDY    39  36  89 E14       30.17F WCI  31
Meriden        LGT RAIN  39  37  92 N5        30.19F FOG
New Haven      CLOUDY    43  38  82 NE8       30.17F
Chester        CLOUDY    41  37  87 E9        30.17F
Groton         LGT RAIN  42  38  85 E10       30.19S FOG
Willimantic    CLOUDY    38  37  97 NE6       30.21F FOG     WCI  33

 In RI

CITY           SKY/WX    TMP DP  RH WIND       PRES   REMARKS
Providence     DRIZZLE   38  38 100 NE6       30.22F FOG     WCI  33
Block Island   CLOUDY    40  39  97 E9        30.19F WCI  34
Westerly       CLOUDY    42  40  92 E14       30.20F

In MA

CITY           SKY/WX    TMP DP  RH WIND       PRES   REMARKS
Boston         CLOUDY    39  38  96 E7        30.25F FOG     WCI  34
Worcester      FRZ RAIN  31  29  92 NE9       30.18F VSB 1/2 WCI  23
Westfield      LGT RAIN  35  35 100 NE8       30.21F WCI  29
Provincetown   CLOUDY    40  38  93 SE5       30.25F
Nantucket      LGT RAIN  41  41 100 E15       30.23F
$$

ANZ330-335-338-340-345-350-353-355-230200-
Coastal Marine Observations


STATION/POSITION TIME  SKY/WX   TEMP    WIND        PRES    VSBY  WAVE
                                AIR SEA DIR/SP/G                  HT/PER
                 (UTC)          (F)     (DEG/KT/KT) (MB)    (MI)  (FT/S)
NY Harb Entrance 2350            43 40   80/ 10/ 12 1019.8          1/ 4
20 S Fire Island 2350            44 42  110/  8/  8 1020.5          2/ 4
15 E Barnegat Li 0030               43                N/A           2/11
Hudson Canyon    2350            51 49  150/  6/  6 1020.9          2/10
Kings Point      0030            38 34   80/  4/  7 1021.7
Execution Rocks  NOT AVBL
Western LI Sound NOT AVBL
Central LI Sound 0000            38      80/ 16/ 19   N/A           2
Robbins Reef     0030            41      50/ 13/ 14 1020.9
$$


>>>>>>>>>>>>>>>>>>>>>>>>>>>> KEY <<<<<<<<<<<<<<<<<<<<<<<<<<<
>                                                          <
>     SKY/WX - Sky Condition/Present Weather               <
>     TMP    - Temperature in Fahrenheit                   <
>     DP     - Dew Point in Fahrenheit                     <
>     RH     - Relative Humidity in Percent                <
>     WIND   - Direction (from) and Speed in MPH           <
>     PRES   - Mean Sea Level Pressure (inches of Hg)      <
>     WCI    - Wind Chill Index                            <
>     VSB    - Visibility in Miles                         <
>     HX     - Heat Index                                  <
>     TC     - Temperature in Celsius                      <
>     VRB    - Varibale Wind Direction                     <
>                                                          <
>>>>>>>>>>>>>>>>>>>>>>>>>>>> KEY <<<<<<<<<<<<<<<<<<<<<<<<<<<




USA.gov is the U.S. government's official web portal to all federal, state and local government web resources and services.